This is the latest recevied weather packets stored in our database for station/object EA5FOG-11. If no packets are shown the sender has not sent any weather packets the latest 1 day(s).
| Time | Temp. | Humidity | Pressure | Rain* | Wind** | Luminosity | Snow |
|---|---|---|---|---|---|---|---|
| 1778074888 | 34.44° C | 24% | 951.7 hPa | - | - | - | - |
| 1778073106 | 32.22° C | 24% | 951.6 hPa | - | - | - | - |
| 1778072206 | 30° C | 26% | 951.7 hPa | - | - | - | - |
| 1778071305 | 28.33° C | 26% | 951.9 hPa | - | - | - | - |
| 1778070404 | 29.44° C | 26% | 952 hPa | - | - | - | - |
| 1778069503 | 28.89° C | 27% | 952.2 hPa | - | - | - | - |
| 1778068602 | 29.44° C | 26% | 952.4 hPa | - | - | - | - |
| 1778067702 | 30° C | 26% | 952.4 hPa | - | - | - | - |
| 1778066801 | 28.89° C | 27% | 952.7 hPa | - | - | - | - |
| 1778065900 | 27.22° C | 27% | 952.7 hPa | - | - | - | - |
| 1778064999 | 27.22° C | 26% | 952.8 hPa | - | - | - | - |
| 1778064098 | 29.44° C | 25% | 952.7 hPa | - | - | - | - |
| 1778063198 | 29.44° C | 25% | 952.9 hPa | - | - | - | - |
| 1778062297 | 30° C | 26% | 952.9 hPa | - | - | - | - |
| 1778061396 | 30.56° C | 26% | 952.8 hPa | - | - | - | - |
| 1778060495 | 31.67° C | 26% | 952.9 hPa | - | - | - | - |
| 1778059594 | 31.11° C | 27% | 952.9 hPa | - | - | - | - |
| 1778058694 | 32.22° C | 27% | 952.9 hPa | - | - | - | - |
| 1778057793 | 32.78° C | 28% | 953 hPa | - | - | - | - |
| 1778056892 | 32.22° C | 29% | 953.1 hPa | - | - | - | - |
| 1778055991 | 31.67° C | 30% | 953.2 hPa | - | - | - | - |
| 1778055089 | 31.11° C | 31% | 953.2 hPa | - | - | - | - |
| 1778054189 | 28.33° C | 33% | 953.2 hPa | - | - | - | - |
| 1778053288 | 27.22° C | 34% | 953.2 hPa | - | - | - | - |
| 1778051506 | 20.56° C | 39% | 953.3 hPa | - | - | - | - |
* Rain since midnight (hover to see other rain measurements)
** Current wind speed in m/s (hover to see current wind gust speed)